Tracking 19817 objects as of 19-Aug-2019
HD Live streaming from Space Station
objects crossing your sky now

METEOSAT 4 AKM

Track METEOSAT 4 AKM now!


NORAD ID: 20800
Int'l Code: 1989-020E
Perigee: 35,209.7 km
Apogee: 36,281.1 km
Inclination: 13.8 °
Period: 1,433.6 minutes
Semi major axis: 42116 km
RCS: 1 m2 (large)
Launch date: March 6, 1989
Source: European Space Agency (ESA)
Launch site: FRENCH GUIANA (FRGUI)

Note: This is a ROCKET BODY
aabbcc
Your satellite tracking list
Your tracking list is empty




NASA's NSSDC Master Catalog

Two Line Element Set (TLE):
1 20800U 89020E   19228.33819240 -.00000362 +00000-0 +00000-0 0  9993
2 20800 013.7693 350.2261 0127195 189.0225 222.0735 01.00444366091124
Source of the keplerian elements: AFSPC